sat.trackr.live / text

‹ back to catalog

STARLINK-11322 [DTC]

NORAD 61542 · 2024-184L

PAYLOAD ACTIVE UNKNOWN

§ Identity

Operator
Country
US
Launch date
2024-10-15
Launch site
AFWTR
Launch vehicle
Mass (kg)
RCS (m²)

Purposes: comms

External: N2YO · Heavens-Above · Gunter

§ Orbital elements

Epoch: 2026-09-21T12:50:51.789696Z

Period
91.74 min
Inclination
53.1603°
Eccentricity
0.0001363
Mean motion
15.69695776 rev/d
Perigee alt
358.8 km
Apogee alt
360.7 km
Semi-major
6,737.9 km
B*
-3.9240e-6
RAAN
351.0691°
Arg perigee
78.1758°
Mean anomaly
281.9413°
Rev number
11,223

§ Raw data

STARLINK-11322 [DTC]1 61542U 24184L   26264.53532164 -.00001064  00000+0 -39240-5 0  99912 61542  53.1603 351.0691 0001363  78.1758 281.9413 15.69695776112230

JSON: /api/v1/satellites/61542 · /tle

For live sub-satellite position, see the globe view (requires WebGL).

§ Visibility from observer

Set your observer location to see the next 7 days of passes ≥ 10°. The values pass through the URL so the page stays shareable.

No JS? Fill the form by hand. The geolocation button needs JavaScript.